TimeEST,TemperatureF,Dew PointF,Humidity,Sea Level PressureIn,VisibilityMPH,Wind Direction,Wind SpeedMPH,Gust SpeedMPH,PrecipitationIn,Events,Conditions,WindDirDegrees,DateUTC
12:56 AM,34.0,18.0,52,29.82,10.0,West,17.3,24.2,N/A,,Clear,280,2012-11-25 05:56:00
1:56 AM,33.1,17.1,52,29.83,10.0,West,6.9,-,N/A,,Partly Cloudy,270,2012-11-25 06:56:00
2:56 AM,34.0,15.1,46,29.84,10.0,WNW,20.7,32.2,N/A,,Clear,300,2012-11-25 07:56:00
3:56 AM,34.0,17.1,50,29.85,10.0,West,10.4,24.2,N/A,,Partly Cloudy,280,2012-11-25 08:56:00
4:56 AM,33.1,16.0,50,29.87,10.0,West,12.7,23.0,N/A,,Mostly Cloudy,280,2012-11-25 09:56:00
5:56 AM,33.1,14.0,46,29.89,10.0,WNW,10.4,20.7,N/A,,Clear,290,2012-11-25 10:56:00
6:56 AM,33.1,15.1,48,29.90,10.0,West,6.9,-,N/A,,Partly Cloudy,280,2012-11-25 11:56:00
7:56 AM,34.0,16.0,48,29.90,10.0,WNW,11.5,23.0,N/A,,Clear,290,2012-11-25 12:56:00
8:56 AM,35.1,16.0,46,29.91,10.0,WNW,19.6,26.5,N/A,,Partly Cloudy,290,2012-11-25 13:56:00
9:56 AM,36.0,18.0,48,29.89,10.0,WNW,19.6,-,N/A,,Mostly Cloudy,300,2012-11-25 14:56:00
10:56 AM,37.9,17.1,43,29.89,10.0,WNW,19.6,25.3,N/A,,Mostly Cloudy,290,2012-11-25 15:56:00
11:56 AM,37.9,19.0,47,29.88,10.0,WNW,19.6,31.1,N/A,,Mostly Cloudy,300,2012-11-25 16:56:00
12:56 PM,39.0,18.0,43,29.86,10.0,WNW,12.7,25.3,N/A,,Scattered Clouds,290,2012-11-25 17:56:00
1:56 PM,39.0,19.0,45,29.85,10.0,WNW,12.7,19.6,N/A,,Mostly Cloudy,290,2012-11-25 18:56:00
2:56 PM,39.0,21.0,49,29.85,10.0,West,6.9,17.3,N/A,,Mostly Cloudy,270,2012-11-25 19:56:00
3:56 PM,37.0,21.0,52,29.86,10.0,West,9.2,-,N/A,,Scattered Clouds,260,2012-11-25 20:56:00
4:56 PM,36.0,21.0,55,29.87,10.0,Calm,Calm,-,N/A,,Scattered Clouds,0,2012-11-25 21:56:00
5:56 PM,36.0,19.9,52,29.89,10.0,WSW,4.6,-,N/A,,Scattered Clouds,240,2012-11-25 22:56:00
6:56 PM,35.1,19.9,54,29.91,10.0,WSW,4.6,-,N/A,,Mostly Cloudy,240,2012-11-25 23:56:00
7:56 PM,36.0,19.9,52,29.92,10.0,Variable,4.6,-,N/A,,Overcast,0,2012-11-26 00:56:00
8:56 PM,35.1,19.0,52,29.94,10.0,Variable,6.9,-,N/A,,Mostly Cloudy,0,2012-11-26 01:56:00
9:56 PM,35.1,19.9,54,29.94,10.0,WSW,4.6,-,N/A,,Mostly Cloudy,250,2012-11-26 02:56:00
10:56 PM,34.0,19.9,56,29.95,10.0,Variable,3.5,-,N/A,,Scattered Clouds,0,2012-11-26 03:56:00
11:56 PM,34.0,19.9,56,29.95,10.0,Calm,Calm,-,N/A,,Mostly Cloudy,0,2012-11-26 04:56:00